Temp
22 24 26 26 22 23 24 26 31 30 30 30 30 30 28 29 29 25 27 26 24 21 20 20 20 19 19 18 18 19 18 18 18 18 18 18 18 18 17 17 17 17 17 17 17 17 16 16 17
22 23 26 23 22 23 25 28 29 30 31 29 29 29 29 30 28 26 26 26 25 22 20 19 20 19 18 18 18 18 18 18 18 18 18 18 18 18 17 17 16 16 16 16 16 17 17 17 17
22 23 23 23 23 23 25 29 30 30 30 30 30 29 29 29 28 27 27 26 25 22 21 20 20 20 19 19 18 18 18 18 18 18 18 18 18 17 17 16 16 16 16 16 16 16 17 17 17
23 24 24 23 24 25 26 28 30 29 30 31 30 29 30 29 30 27 26 26 26 24 22 21 20 20 19 19 18 18 18 18 18 18 18 18 18 18 17 17 17 17 16 16 16 16 16 17 17
24 23 22 23 23 25 27 29 30 29 29 30 29 28 27 28 27 26 26 27 26 23 23 21 21 21 20 19 18 18 18 18 18 18 18 18 18 18 17 17 17 17 17 16 16 16 16 16 16
21 22 21 22 24 26 27 29 29 28 28 29 29 28 27 28 27 26 26 27 26 23 21 21 21 20 20 19 19 18 18 17 18 18 17 17 18 18 17 17 17 17 17 16 16 17 16 17 17
21 21 22 23 24 26 28 29 28 28 27 28 30 29 26 26 27 26 26 26 26 23 21 20 20 20 20 20 19 18 18 17 17 17 17 18 18 18 17 17 17 16 16 16 17 17 17 17 17
22 21 22 23 24 25 27 29 28 28 27 30 30 27 26 25 26 26 27 26 26 25 22 20 20 19 19 19 19 19 18 17 17 17 17 18 18 18 17 17 17 17 17 17 17 17 17 18 18
23 20 20 22 24 25 27 27 28 29 27 28 29 28 26 27 26 26 26 26 26 24 24 21 20 19 19 18 18 18 18 18 17 17 18 18 18 17 17 17 17 17 17 17 17 17 18 18 18
20 19 21 24 25 25 27 27 27 27 26 25 26 26 27 26 26 25 25 25 25 24 24 23 22 21 20 19 19 18 17 18 18 17 18 18 18 18 17 17 17 17 17 17 17 18 18 18 17
20 19 23 24 25 25 24 24 27 25 25 25 25 26 25 26 26 25 26 26 25 25 24 24 23 22 21 20 20 18 18 18 18 18 18 19 19 19 18 18 17 17 17 17 18 18 17 17 17
20 22 22 23 24 24 22 24 23 24 24 25 25 26 27 25 25 25 26 27 26 25 25 24 24 22 21 21 20 19 19 19 19 19 19 19 19 19 18 18 18 17 17 17 18 18 17 17 17
20 21 23 23 23 22 23 21 21 22 23 24 25 25 25 25 25 27 27 27 27 26 25 24 24 23 21 20 20 20 21 20 20 20 20 20 19 19 19 18 18 18 17 17 17 17 17 17 16
22 21 21 22 22 21 21 21 20 21 22 22 23 23 23 24 24 26 26 27 27 27 26 25 24 23 22 21 21 21 22 21 21 20 20 20 20 20 20 18 18 18 17 17 17 17 16 16 16
20 18 19 20 20 20 21 19 20 21 22 22 22 23 23 23 24 24 26 27 27 27 27 25 24 23 23 22 21 21 22 22 21 21 20 20 20 20 19 18 18 17 17 16 16 16 16 15 15
18 18 17 21 21 21 20 18 21 22 21 21 22 22 23 23 24 25 26 27 27 27 27 26 25 23 22 22 22 22 23 22 21 21 20 20 20 19 19 18 17 17 16 16 16 15 15 15 14
18 16 18 20 21 22 20 19 21 22 22 21 21 22 23 23 23 25 26 26 27 27 27 27 25 24 23 23 22 22 22 22 21 21 20 20 19 19 18 17 17 16 15 15 15 15 14 14 13
17 18 18 19 21 21 19 19 20 21 21 21 20 21 21 22 22 25 26 26 27 27 27 27 26 24 23 22 22 22 23 22 22 21 20 20 19 18 17 17 16 15 15 15 14 14 13 13 12
19 19 18 19 21 19 18 19 19 20 20 20 21 21 21 22 22 25 25 25 25 26 26 26 26 25 24 24 23 23 23 21 21 21 20 19 19 17 16 16 15 15 15 14 14 13 12 12 12
18 17 17 18 19 18 17 17 18 19 19 20 20 20 21 21 21 22 24 25 25 25 25 25 26 25 24 24 23 22 21 20 21 20 18 18 17 16 16 16 15 14 14 14 13 13 12 11 11
16 16 16 16 17 17 17 17 18 21 20 20 20 21 21 21 21 21 22 23 24 24 24 24 25 25 23 23 23 21 20 18 18 17 16 15 15 15 15 15 14 14 14 13 13 12 12 11 10
15 18 17 17 15 14 15 13 17 19 20 21 19 19 19 20 20 21 21 21 23 24 24 24 24 25 24 23 22 21 17 15 15 15 14 14 13 14 14 14 14 13 13 12 12 11 12 11 10
16 16 15 15 14 13 14 11 15 19 19 21 21 21 20 19 19 19 19 21 23 23 23 24 24 24 24 23 21 19 16 15 14 13 13 12 12 13 14 14 13 12 12 11 11 11 10 10 10
15 15 15 14 14 11 13 14 15 19 20 20 20 21 20 21 22 20 20 22 22 23 23 23 23 23 23 22 19 17 16 14 12 12 11 12 12 12 13 12 12 12 11 11 10 10 9 9 9
14 13 10 11 11 10 18 14 16 20 20 20 20 21 21 21 21 20 18 17 20 22 22 22 22 22 22 21 19 17 15 14 12 11 10 10 10 11 11 11 11 11 11 10 9 9 9 8 7
13 14 11 13 12 14 16 15 16 20 21 21 21 21 20 19 19 19 19 17 18 20 21 21 21 21 21 20 18 16 15 13 11 11 10 9 9 10 10 11 10 10 9 9 9 8 7 7 7
13 11 14 12 13 10 13 17 18 20 20 20 19 20 18 18 19 19 17 17 18 19 21 21 20 20 20 19 17 16 15 12 11 10 9 9 9 10 10 10 9 9 8 8 8 7 7 7 6
14 14 11 10 8 11 14 16 17 19 18 18 18 19 18 18 17 16 16 16 17 19 21 21 20 19 19 18 17 15 14 12 11 10 9 10 9 10 9 9 8 8 7 7 7 7 6 6 6
12 12 12 13 12 10 12 15 19 17 18 18 17 18 17 17 17 16 15 16 16 19 19 20 19 19 18 17 14 13 12 11 10 10 10 10 9 9 9 8 8 7 7 7 7 6 6 5 5
14 12 12 9 10 11 10 13 18 17 18 17 17 18 18 18 17 16 16 15 15 17 18 19 19 18 16 13 12 11 11 10 10 10 9 9 8 9 8 8 7 7 6 6 6 5 5 5 4
Height
777 776 775 774 798 786 791 773 741 751 751 738 736 742 752 746 753 780 755 757 758 761 766 771 774 778 782 785 787 789 791 793 795 798 800 802 804 805 806 807 808 808 809 809 811 812 814 815 816
776 775 774 775 796 801 784 753 754 747 741 740 742 744 749 751 740 750 754 757 759 762 767 771 775 778 782 786 788 790 792 794 796 798 801 803 805 806 807 808 808 810 810 811 812 813 814 815 816
775 775 779 782 789 796 783 748 743 740 739 744 747 739 742 748 742 748 750 756 759 763 768 771 776 779 782 785 788 791 793 795 798 800 802 804 806 807 808 809 810 810 811 813 813 815 815 816 817
775 773 774 785 784 768 765 748 739 744 742 741 742 749 737 740 742 747 754 756 759 762 767 771 776 780 783 785 788 791 794 796 799 801 803 804 807 808 810 810 811 811 812 813 815 816 816 817 818
773 771 785 783 778 764 750 740 738 749 748 744 743 752 747 744 746 750 754 757 760 761 766 771 776 780 783 786 788 790 793 796 798 801 803 805 807 809 810 811 811 813 813 815 816 816 816 818 818
776 770 786 786 772 756 748 738 739 747 748 744 746 748 750 745 747 752 755 757 761 762 766 770 775 779 782 785 788 790 793 796 799 800 802 803 805 807 810 811 812 813 814 815 816 817 818 819 819
773 775 780 775 769 757 745 731 740 746 749 748 738 750 746 746 747 752 756 758 761 762 765 770 774 777 781 784 787 790 792 795 798 800 802 803 805 805 807 810 812 814 815 815 816 817 818 819 819
766 770 775 769 768 760 738 731 732 741 750 735 735 752 756 749 750 752 756 758 761 763 765 770 773 776 780 783 786 788 791 794 797 799 802 804 804 806 807 810 811 812 815 816 816 817 818 819 819
758 776 776 769 763 754 737 740 731 733 745 740 738 740 746 748 751 751 755 759 761 764 766 767 771 776 779 783 785 787 790 792 795 798 800 803 805 807 808 810 811 812 814 815 816 817 818 819 818
765 773 765 751 748 749 739 736 737 743 748 749 745 741 746 749 750 751 754 756 759 762 765 766 769 774 779 781 785 788 790 791 793 796 800 802 804 805 807 809 811 812 814 815 816 817 817 818 818
761 767 753 748 743 741 746 745 735 745 751 746 748 742 742 746 748 748 751 753 756 759 763 765 767 770 775 779 782 786 788 790 792 794 797 800 803 803 806 808 810 811 813 814 816 816 817 818 818
764 753 752 748 742 746 751 746 747 746 748 740 739 738 740 742 744 746 747 748 751 754 758 762 766 767 771 775 780 783 785 788 790 792 795 797 801 803 805 806 809 810 812 814 815 816 816 818 818
757 756 748 746 744 748 748 753 754 750 744 741 737 738 740 741 741 743 744 745 748 750 752 757 762 765 767 771 777 780 782 784 787 790 794 796 799 801 803 806 808 809 811 813 815 815 815 817 816
750 752 752 749 746 750 754 754 755 750 744 742 741 739 739 739 740 742 741 742 743 746 747 752 758 761 765 768 773 776 779 781 785 788 791 794 797 800 802 803 805 809 810 812 813 813 814 815 815
753 764 758 754 750 751 749 756 752 745 741 742 740 738 737 736 736 737 738 739 739 743 744 747 752 757 761 764 768 771 774 778 782 785 788 792 796 797 798 801 805 808 809 811 811 813 813 815 815
764 764 773 745 741 742 752 757 742 733 735 737 736 733 732 730 730 732 733 735 736 737 740 743 746 752 756 759 762 765 769 772 776 782 785 790 791 793 796 800 803 806 808 810 811 812 813 814 813
761 772 762 751 735 737 746 750 736 730 728 732 729 727 725 725 724 724 727 728 730 732 734 736 739 743 749 755 758 762 765 767 771 778 781 786 788 792 794 797 800 804 806 808 810 811 811 812 812
764 761 758 753 739 740 748 746 738 732 731 730 728 724 722 720 718 716 719 721 723 726 728 731 735 738 742 748 753 757 760 762 767 772 776 779 784 788 791 794 797 801 804 807 808 809 810 811 811
751 753 755 748 737 745 746 742 736 730 726 723 722 721 718 717 713 712 713 715 717 719 721 724 726 731 736 741 745 748 751 755 761 768 771 774 778 783 788 791 795 798 801 804 806 808 809 810 810
752 759 762 752 745 749 749 740 734 726 715 713 714 713 711 711 709 708 708 709 711 714 717 719 721 723 729 735 739 743 746 752 756 762 767 771 775 781 785 788 792 796 799 802 804 806 808 809 809
761 764 764 764 755 751 750 732 717 700 700 700 701 702 702 702 703 703 703 703 706 707 711 714 716 719 722 728 735 738 742 748 753 759 762 768 774 780 784 786 789 794 798 800 801 804 806 808 809
765 752 756 759 766 774 758 763 723 706 701 695 695 695 696 697 698 700 701 700 699 701 705 708 711 714 717 722 725 729 733 740 745 751 757 766 773 778 782 784 787 791 795 798 801 803 804 806 808
762 759 764 766 773 775 766 781 720 698 701 695 691 687 688 691 692 693 694 694 695 697 699 700 705 709 712 714 716 724 730 736 742 748 755 764 771 776 779 781 784 788 793 797 799 801 803 805 807
762 763 766 770 774 784 761 757 715 701 695 692 688 684 684 684 683 687 689 691 691 693 693 696 698 701 706 709 712 718 724 730 739 745 752 759 768 772 776 778 782 786 790 794 798 799 802 804 806
765 771 790 789 788 787 727 749 714 691 685 688 687 684 683 681 683 686 690 690 690 688 689 691 694 695 700 705 710 715 722 725 732 740 747 755 763 769 772 776 780 784 788 794 796 797 800 802 804
765 768 786 773 769 755 735 733 709 684 679 677 678 679 680 680 681 683 686 691 689 686 682 686 689 691 695 701 708 714 721 725 731 738 745 751 760 765 770 773 779 782 787 792 794 796 798 800 802
766 777 767 774 762 781 742 710 690 681 677 674 676 674 676 678 680 682 685 686 686 682 677 679 684 688 693 698 705 714 718 724 729 736 745 749 757 763 768 772 777 783 787 790 792 794 797 799 801
759 761 782 784 804 766 725 713 703 688 686 681 683 678 674 674 679 683 684 687 683 677 673 674 679 685 688 695 703 709 716 722 728 735 743 750 757 761 766 770 776 782 786 789 791 794 795 797 799
765 768 766 764 764 772 744 715 678 686 686 685 684 680 679 678 679 682 684 687 683 675 673 671 675 683 688 694 698 706 715 722 729 736 744 749 755 760 764 770 775 782 785 787 790 792 794 795 796
750 757 762 784 771 760 757 711 679 684 683 684 687 678 675 675 677 678 681 683 683 676 672 670 674 681 686 691 698 706 714 723 730 736 742 749 753 760 764 771 776 781 784 787 789 791 793 793 793
Wind_Speed
8 13 12 8 2 4 8 11 1 1 1 7 5 4 6 8 3 3 13 12 27 26 25 22 19 18 17 15 13 11 9 10 11 12 13 13 12 11 11 11 10 11 10 11 12 11 11 11 10
8 11 12 3 4 6 8 14 7 4 2 8 7 7 6 3 8 7 12 15 24 27 23 21 19 18 17 15 12 10 9 11 12 16 13 11 10 11 12 12 11 12 12 11 10 9 8 6 7
7 11 2 3 5 10 9 8 6 6 6 3 5 8 7 3 8 12 19 22 24 25 24 22 20 18 17 14 12 11 12 11 14 14 12 11 13 12 12 11 11 12 13 12 11 10 9 8 7
7 5 4 6 13 12 18 15 5 5 3 2 6 5 5 11 3 15 18 22 22 23 26 21 20 14 14 14 12 11 12 13 15 12 12 13 11 9 9 9 10 11 11 11 10 9 9 8 8
11 3 6 8 14 16 16 11 4 1 6 2 5 8 5 9 15 18 17 20 21 25 26 24 22 17 13 12 12 11 12 14 15 13 11 9 7 6 6 4 7 8 9 9 8 8 8 7 7
4 3 5 13 15 14 14 14 6 4 9 7 2 8 4 16 17 15 16 19 21 23 23 26 22 17 13 13 12 12 13 15 14 13 10 9 7 6 7 5 5 7 7 7 7 7 6 6 5
8 7 10 13 14 12 12 11 5 5 7 8 5 4 8 9 19 16 15 18 21 22 23 24 22 18 15 14 13 13 13 14 14 13 10 8 5 5 12 9 7 6 6 6 6 6 5 5 5
5 5 15 14 12 14 10 5 8 5 9 3 5 2 4 6 13 16 15 17 19 20 23 22 22 21 18 16 14 14 14 14 14 14 11 8 7 11 13 10 8 7 6 5 6 5 5 5 6
8 6 11 17 14 12 11 8 5 2 6 6 2 3 7 11 11 15 14 15 17 19 21 25 24 21 18 15 17 16 15 16 16 15 13 10 8 10 10 9 8 7 6 5 4 5 4 5 6
6 8 11 11 12 11 14 6 3 2 7 8 8 10 12 7 11 14 13 14 18 19 20 23 24 23 20 19 16 16 15 16 18 17 15 12 12 12 12 10 8 7 6 4 4 5 7 6 6
8 13 9 14 15 5 9 12 4 5 5 7 10 8 10 11 11 11 15 19 19 20 20 20 24 28 24 20 18 17 16 15 15 15 15 15 14 14 13 9 10 8 6 5 6 6 3 3 4
16 12 14 16 12 5 6 9 9 7 8 10 10 7 1 8 8 10 11 16 25 24 23 22 21 24 26 23 19 22 23 18 19 18 17 15 15 15 14 10 11 11 8 5 7 4 2 3 2
11 16 12 9 10 7 6 9 10 14 11 10 11 11 6 5 5 13 17 17 15 23 26 25 24 24 27 24 22 23 23 21 21 21 19 18 17 14 16 17 18 12 9 7 5 4 3 2 3
5 8 10 14 6 7 12 10 11 8 12 14 14 13 10 9 9 16 20 13 14 18 24 26 26 27 24 27 24 24 23 23 21 22 20 18 18 16 16 17 12 11 11 9 7 4 1 0 3
5 7 10 12 9 9 5 15 17 18 17 17 15 15 16 14 16 15 23 22 21 20 23 26 28 27 27 27 26 26 21 23 23 18 22 20 18 19 17 14 13 13 10 7 5 2 0 1 3
4 9 10 10 19 13 11 15 10 13 18 20 20 15 14 14 20 28 28 28 28 24 24 27 31 31 29 29 28 26 24 23 24 19 22 22 19 21 19 18 15 14 12 10 6 4 3 1 3
8 7 11 10 5 4 8 5 11 11 6 7 8 12 14 15 14 22 29 32 30 27 24 28 31 35 33 30 29 27 25 27 25 24 24 24 23 20 21 20 17 13 11 9 6 4 4 1 4
7 11 9 9 5 4 8 13 11 12 15 12 9 9 8 9 10 19 27 30 29 32 26 28 24 32 33 34 30 30 27 27 25 27 26 29 26 24 24 21 18 16 13 11 8 5 4 4 6
12 10 8 10 9 9 10 16 14 15 15 17 16 13 13 15 12 19 23 23 21 24 27 23 32 32 31 29 30 30 30 30 29 29 30 32 30 29 25 23 21 17 14 12 9 8 5 5 7
6 7 10 9 8 7 11 22 20 20 22 20 19 18 15 13 13 14 21 22 29 26 25 31 27 35 37 33 30 28 27 30 31 31 28 30 30 28 27 26 22 19 17 14 12 7 6 4 8
7 7 7 9 11 11 14 17 11 9 17 21 21 20 17 17 14 13 14 22 25 29 32 30 32 29 37 34 31 24 29 28 27 27 28 27 26 27 28 24 23 19 16 15 12 10 7 6 4
5 3 6 8 7 3 10 7 8 11 9 7 10 10 12 13 13 14 15 14 21 29 32 35 28 33 29 36 31 37 29 26 26 33 30 26 26 28 27 25 21 20 17 15 12 10 9 7 6
3 7 4 5 6 8 4 4 7 7 8 5 8 8 8 10 10 10 10 18 27 25 23 36 37 30 32 37 33 38 28 24 30 30 29 28 27 29 28 26 23 21 17 14 13 11 8 8 6
5 1 2 4 2 5 12 10 6 3 3 4 9 4 9 7 2 4 7 8 10 21 30 22 31 36 28 35 32 36 34 32 33 33 31 33 31 31 28 25 23 22 17 16 14 11 9 6 5
7 2 2 2 2 6 4 9 12 15 18 13 7 3 5 5 2 3 7 8 13 20 21 26 22 31 29 32 31 35 34 35 36 37 33 33 34 31 29 26 24 20 19 16 13 11 8 6 5
8 4 3 5 3 3 7 7 6 10 8 6 5 5 7 8 2 4 3 6 19 22 22 24 20 25 27 31 29 33 29 33 32 34 33 34 33 32 30 26 23 21 19 16 13 10 7 5 3
4 5 1 5 5 2 5 7 10 14 16 14 9 7 11 8 4 2 6 9 19 25 25 25 26 27 26 30 31 30 31 33 33 32 33 35 34 32 29 25 22 20 18 15 11 9 6 4 3
8 1 2 0 3 6 6 9 9 6 7 8 8 7 6 6 7 6 6 9 22 26 20 24 27 28 29 30 29 30 34 33 33 33 29 31 30 32 30 27 23 20 17 14 12 9 6 4 4
7 4 4 3 3 4 5 5 4 5 6 5 8 7 7 6 5 3 4 11 22 20 13 22 25 23 27 29 30 33 32 31 30 31 31 32 33 32 30 26 24 19 16 12 10 8 5 3 4
12 7 10 3 5 5 3 11 13 7 7 7 8 6 6 4 5 4 1 3 18 16 16 20 23 22 25 33 34 35 33 31 31 33 32 32 32 30 28 24 21 18 14 11 8 6 4 4 5
Wind_Direction
287 306 289 278 260 215 254 259 150 351 252 315 44 341 6 291 70 100 131 113 137 141 151 150 145 141 137 135 133 128 126 129 132 138 127 118 111 107 92 76 74 76 87 88 82 78 76 77 71
281 295 268 271 239 256 253 236 190 201 339 35 338 307 293 249 85 121 125 141 143 143 149 152 147 141 139 136 131 123 123 129 129 125 121 120 118 107 93 86 84 82 86 93 86 80 71 69 66
275 274 293 216 222 241 261 305 74 121 64 273 254 184 249 59 93 138 139 146 142 142 150 156 149 145 144 142 137 127 126 130 137 131 121 116 123 109 102 89 83 86 87 85 84 82 78 76 78
250 228 269 256 251 229 239 274 55 71 225 158 292 284 97 35 101 122 139 147 144 146 158 149 150 150 150 146 142 137 140 141 139 139 130 120 124 123 113 95 80 88 89 86 85 81 77 76 75
237 271 232 230 242 262 281 288 83 207 290 164 181 264 102 78 101 126 144 152 147 143 148 150 152 164 158 152 147 142 146 144 145 136 133 135 135 140 135 134 89 93 90 85 74 73 74 77 75
212 202 248 229 248 240 237 260 160 210 265 233 98 278 100 128 125 139 151 156 146 143 149 158 164 170 167 162 156 148 148 155 157 148 137 144 156 173 168 165 117 101 92 86 82 80 79 73 61
231 231 233 245 258 258 241 235 177 217 237 262 228 287 138 106 125 144 161 162 155 139 152 161 166 171 172 168 162 158 157 161 170 166 166 153 147 161 163 159 135 114 101 102 97 91 81 68 46
231 253 253 250 259 259 272 280 167 201 261 247 353 223 91 108 137 147 159 159 162 156 158 163 168 172 173 171 170 165 166 171 168 170 179 160 122 138 149 153 148 140 130 115 100 86 84 62 48
217 235 233 245 249 259 277 291 126 143 304 299 193 275 112 120 152 142 149 156 164 165 167 164 174 175 176 180 175 172 173 177 181 184 189 174 151 149 150 159 156 148 142 122 103 96 82 61 44
219 219 238 246 253 254 265 262 174 195 211 273 265 115 124 153 175 157 168 177 174 174 181 172 174 179 176 174 185 181 182 181 184 192 197 186 179 172 177 173 167 154 146 133 108 90 77 45 31
215 245 229 242 272 9 331 323 203 297 222 231 238 204 163 179 189 191 192 186 188 182 188 191 177 176 185 186 190 183 185 185 181 186 192 181 197 175 174 179 173 165 144 119 117 102 102 9 12
242 236 239 266 279 340 300 302 304 267 250 279 296 316 68 170 190 196 224 212 187 185 189 186 195 175 180 189 194 191 189 186 190 191 188 183 190 198 194 185 175 142 150 176 118 141 69 64 27
229 248 253 251 281 311 291 283 285 289 300 273 283 286 278 253 262 274 210 219 229 190 186 187 193 188 178 181 191 199 195 187 193 186 189 189 189 187 186 173 158 170 170 142 156 147 115 313 351
209 287 264 269 244 260 266 259 259 267 266 275 275 275 275 250 234 260 269 223 231 220 185 187 195 191 186 193 196 203 199 191 193 186 189 191 191 185 185 164 170 183 177 168 155 161 179 4 338
353 313 277 259 252 241 272 254 249 251 250 257 248 244 252 257 253 238 249 255 212 232 201 191 192 195 195 192 196 199 201 193 193 195 186 191 190 189 169 179 194 184 177 146 159 144 115 352 333
254 247 261 245 223 224 205 254 267 271 231 235 242 251 250 238 231 238 244 245 250 209 222 201 193 195 198 202 200 200 197 193 195 196 185 187 195 185 191 195 188 182 161 169 176 162 122 26 346
228 266 224 256 187 176 199 281 264 271 284 286 262 233 238 238 240 236 233 234 235 242 219 207 197 191 196 202 202 203 201 195 193 195 188 188 196 199 197 193 184 175 157 165 159 140 141 63 350
219 222 249 274 167 176 239 257 264 280 283 269 246 258 262 257 243 231 231 237 231 234 229 218 208 193 195 200 202 202 202 199 204 196 191 189 192 196 197 187 173 168 171 163 158 135 97 52 356
275 299 297 311 326 336 293 282 271 269 256 250 248 248 241 248 251 251 237 247 245 237 238 236 206 202 199 202 199 195 199 190 189 192 192 191 196 197 191 175 169 171 164 155 159 143 129 54 25
297 290 286 293 302 310 302 283 278 261 256 249 243 247 247 246 241 245 247 233 230 239 244 242 220 200 201 205 204 202 186 180 186 181 177 188 196 192 181 175 168 167 169 166 157 156 133 77 41
261 253 278 293 304 293 290 282 251 257 236 238 237 242 244 243 245 242 239 235 234 221 229 244 231 217 201 199 201 191 174 164 159 168 176 187 190 183 179 173 171 171 170 160 154 152 152 138 76
251 298 336 326 321 266 21 293 273 281 257 215 210 208 221 237 244 250 261 265 237 228 224 230 239 222 219 196 191 187 169 162 171 172 174 179 183 180 176 173 171 167 169 162 153 148 138 141 132
232 40 8 328 320 344 252 240 263 207 237 237 249 217 216 206 214 223 223 233 253 261 238 222 229 228 221 199 192 182 171 172 167 168 169 173 177 178 173 173 169 166 166 161 160 148 139 138 139
68 36 226 269 245 254 217 206 281 189 109 21 351 350 210 177 131 14 340 281 248 256 246 246 224 219 215 194 181 176 171 165 163 165 165 171 173 169 169 171 167 165 164 166 159 151 147 147 149
111 80 331 240 207 235 218 201 248 298 298 291 256 309 297 60 49 15 352 324 295 246 244 237 236 207 203 193 183 182 177 175 174 169 166 163 166 166 165 168 166 165 164 168 160 153 151 151 159
188 187 203 269 222 306 314 239 245 224 246 170 186 245 255 287 113 78 344 311 295 278 223 224 218 198 196 189 178 176 176 173 170 169 167 165 167 166 165 167 168 165 167 164 161 155 156 173 174
136 202 261 306 278 264 232 277 288 265 263 260 254 247 204 204 169 65 14 332 304 285 224 210 206 198 196 185 174 176 172 168 164 167 165 164 170 165 164 163 165 166 163 161 156 153 165 172 206
203 68 78 64 267 261 244 259 248 338 342 4 350 321 269 174 81 39 16 331 304 297 235 203 199 196 188 174 175 163 161 163 167 169 161 158 161 160 163 163 163 161 160 161 158 167 181 188 204
184 232 224 315 214 243 301 243 18 28 18 358 330 344 38 56 64 45 18 325 308 310 283 195 183 193 175 172 150 152 152 158 155 157 157 157 158 163 162 162 159 161 161 158 156 166 187 217 241
202 204 213 181 238 231 273 279 253 312 317 7 319 273 238 215 214 168 182 325 308 307 294 177 183 185 155 136 139 144 148 146 145 148 150 150 154 158 156 156 156 156 156 153 159 165 206 240 265